Other Public Products
Issued by NWS Charleston, SC

Current Version | Previous Version | Graphics & Text | Print | Product List | Glossary On
Versions: 1 2 3 4 5 6 7 8 9 10 11 12 13 14 15 16 17 18 19 20 21 22 23 24 25 26 27 28 29 30 31 32 33 34 35 36 37 38 39 40 41 42 43 44 45 46 47 48 49 50
000
FPUS82 KCHS 210312
OPUCHS

TEST...KCHS/KSAV Gateway Observations...TEST
National Weather Service Charleston SC
1100 PM EDT FRI OCT 20 2017

NOTE: "fair" indicates few or no clouds below 12,000 feet with no
significant weather and/or obstructions to visibility.

SCZ050-WAZ558-NCZ071-TXZ119-213-PAZ071-DCZ001-FLZ074-172-MI076-
NYZ176-178-MAZ016-IL014-TNZ027-NJZ106-GAZ044-MD014-210400-

...Gateway Observations for Charleston International...

CITY           SKY/WX    TMP DP  RH WIND       PRES   REMARKS
Chas Airport   CLEAR     62  60  93 CALM      30.23R
Seattle        PTCLDY    48  44  86 SW16G26   29.91R
Charlotte      PTCLDY    55  50  83 CALM      30.25R
Dallas DFW     PTCLDY    74  67  78 SE20G26   29.91F
Dallas Love    PTCLDY    74  66  76 SE22G28   29.93S
Philladelphia  CLEAR     61  39  44 CALM      30.23R
Wash National  CLEAR     60  53  77 N5        30.25R
Baltimore      CLEAR     52  49  89 NW3       30.24R
Miami          CLOUDY    81  75  82 NE12G20   30.04R
Detroit        MOCLDY    59  50  72 S7        30.16S
Newark         CLEAR     63  37  38 N3        30.21R
Laguardia      PTCLDY    67  42  40 NW8       30.20R
J F K          PTCLDY    62  37  39 NW8       30.21R
Boston Logan   CLEAR     63  35  35 NW12      30.13R
Ft. Lauderdale PTCLDY    81  74  79 NE16G23   30.03S
Chicago O`Hare CLOUDY    65  48  54 S12       30.05R
Chicago Midway CLOUDY    69  48  47 S12       30.06R
Houston Bush   CLOUDY    74  72  93 E7        29.97R
Houston Hobby  MOCLDY    77  72  84 SE7       29.96R
Nashville      PTCLDY    58  50  75 S5        30.17F
Atlanta        CLOUDY    64  47  53 E3        30.22S

$$

GAZ044-118-TXZ119-213-NCZ071-DCZ001-MDZ014-506-PAZ021-071-NJZ106-
NYZ176-178-MAZ106-OHZ011-021-055-MIZ076-KYZ091-ILZ014-INZ047-
MNZ060-ONZ431-210400-

...Gateway Observations for Savannah International...

CITY           SKY/WX    TMP DP  RH WIND       PRES   REMARKS
Savannah Arpt  CLEAR     61  61 100 CALM      30.22R
Atlanta        CLOUDY    64  47  53 E3        30.22S
Charlotte      PTCLDY    55  50  83 CALM      30.25R
Dallas DFW     PTCLDY    74  67  78 SE20G26   29.91F
Houston Bush   CLOUDY    74  72  93 E7        29.97R
Wash National  CLEAR     60  53  77 N5        30.25R
Wash Dulles    CLEAR     52  47  83 CALM      30.25R
Baltimore      CLEAR     52  49  89 NW3       30.24R
Philadelphia   CLEAR     61  39  44 CALM      30.23R
Newark         CLEAR     63  37  38 N3        30.21R
Laguardia      PTCLDY    67  42  40 NW8       30.20R
J F K          PTCLDY    62  37  39 NW8       30.21R
Boston         CLEAR     63  35  35 NW12      30.13R
Pittsburg      CLOUDY    53  40  61 CALM      30.26R
Akron          CLEAR     54  42  64 S7        30.23S
Cleveland      PTCLDY    55  40  56 S8        30.22S
Cincinnati     PTCLDY    61  53  75 S5        30.20R
Columbus       CLEAR     53  43  70 SE5       30.21S
Detroit        MOCLDY    59  50  72 S7        30.16S
Chicago O`Hare CLOUDY    65  48  54 S12       30.05R
Minneapolis    PTCLDY    68  50  52 S17       29.73F
Indianapolis   PTCLDY    63  49  60 S9        30.16R
Toronto Canada PTCLDY    55  34  44 SW6       30.16R

$$




USA.gov is the U.S. government's official web portal to all federal, state and local government web resources and services.